Weather History for KBDU - February, 2014

Change the Weather History Date:

Friday, February 14, 2014

  Actual Average (KDEN) Record (KDEN)
Temperature  
Mean Temperature 38 °F 32 °F  
Max Temperature 46 °F 46 °F 71 °F (1979)
Min Temperature 30 °F 18 °F -10 °F (1903)
Degree Days  
Heating Degree Days 27 33  
Month to date heating degree days 472  
Since 1 July heating degree days 4003  
Cooling Degree Days 0 0  
Month to date cooling degree days 0  
Year to date cooling degree days 0  
Moisture  
Dew Point 24 °F    
Average Humidity 60    
Maximum Humidity 93    
Minimum Humidity 27    
Precipitation  
Precipitation 0.00 in 0.01 in 0.41 in (1960)
Month to date precipitation 0.17  
Year to date precipitation 0.58  
Snow  
Snow 0.00 in - - ()
Month to date snowfall  
Since 1 July snowfall  
Snow Depth -    
Sea Level Pressure  
Sea Level Pressure 29.92 in    
Wind  
Wind Speed 10 mph (NNW)    
Max Wind Speed 25 mph    
Max Gust Speed 40 mph    
Visibility 10 miles    
Events      
T = Trace of Precipitation, MM = Missing Value Source: NWS Daily Summary

Daily Weather History Graph

Daily Weather History Graph

Search for Another Location

Airport or City:

Trip Planner

Search our weather history database for the weather conditions in past years. The results will help you decide how hot, cold, wet, or windy it might be!

Date:

Astronomy

Feb. 14, 2014 Rise Set
Actual Time 6:54 AM MST 5:35 PM MST
Civil Twilight 6:27 AM MST 6:03 PM MST
Nautical Twilight 5:55 AM MST 6:35 PM MST
Astronomical Twilight 5:24 AM MST 7:06 PM MST
Moon 5:41 PM MST (2/14) 6:23 AM MST (2/14)
Length of Visible Light 11h 36m
Length of Day
10h 40m
Full, 100% of the Moon is Illuminated
Feb 14
Full
Feb 14
Full
Feb 22
Last Quarter
Mar 1
New
Mar 8
First Quarter

Hourly Weather History & Observations

Time (MST) Temp. Windchill Dew Point Humidity Pressure Visibility Wind Dir Wind Speed Gust Speed Precip Events Conditions
12:16 AM 46.4 °F 37.9 °F 17.6 °F 32% 29.83 in 10.0 mi West 25.3 mph 35.7 mph N/A   Clear
12:36 AM 46.4 °F 38.7 °F 17.6 °F 32% 29.84 in 10.0 mi West 20.7 mph 40.3 mph N/A   Clear
12:56 AM 44.6 °F 39.7 °F 17.6 °F 34% 29.85 in 10.0 mi WNW 9.2 mph 26.5 mph N/A   Clear
1:16 AM 44.6 °F 38.4 °F 19.4 °F 37% 29.87 in 10.0 mi WNW 12.7 mph 20.7 mph N/A   Clear
1:36 AM 44.6 °F 37.2 °F 19.4 °F 37% 29.88 in 10.0 mi NW 17.3 mph 24.2 mph N/A   Clear
1:56 AM 44.6 °F 40.2 °F 19.4 °F 37% 29.88 in 10.0 mi NW 8.1 mph 24.2 mph N/A   Clear
2:16 AM 44.6 °F 37.8 °F 17.6 °F 34% 29.89 in 10.0 mi WNW 15.0 mph 25.3 mph N/A   Clear
2:36 AM 44.6 °F 39.2 °F 17.6 °F 34% 29.89 in 10.0 mi WNW 10.4 mph 26.5 mph N/A   Clear
2:56 AM 44.6 °F 40.7 °F 15.8 °F 31% 29.90 in 10.0 mi NW 6.9 mph - N/A   Clear
3:16 AM 42.8 °F 38.0 °F 14.0 °F 31% 29.91 in 10.0 mi West 8.1 mph - N/A   Clear
3:36 AM 42.8 °F 38.6 °F 14.0 °F 31% 29.91 in 10.0 mi WNW 6.9 mph - N/A   Clear
3:56 AM 42.8 °F 37.5 °F 12.2 °F 29% 29.92 in 10.0 mi WNW 9.2 mph - N/A   Clear
4:16 AM 42.8 °F 37.5 °F 12.2 °F 29% 29.92 in 10.0 mi WNW 9.2 mph - N/A   Clear
4:36 AM 42.8 °F 37.0 °F 10.4 °F 27% 29.94 in 10.0 mi WNW 10.4 mph - N/A   Clear
4:56 AM 41.0 °F 38.0 °F 10.4 °F 29% 29.95 in 10.0 mi WNW 4.6 mph - N/A   Clear
5:16 AM 41.0 °F 36.4 °F 10.4 °F 29% 29.96 in 10.0 mi NNW 6.9 mph - N/A   Clear
5:36 AM 35.6 °F - 19.4 °F 52% 29.96 in 10.0 mi Calm Calm - N/A   Clear
5:56 AM 33.8 °F 30.8 °F 23.0 °F 65% 29.97 in 10.0 mi NNE 3.5 mph - N/A   Clear
6:16 AM 33.8 °F 29.6 °F 19.4 °F 56% 29.97 in 10.0 mi NNW 4.6 mph - N/A   Clear
6:36 AM 32.0 °F 25.6 °F 23.0 °F 69% 29.99 in 10.0 mi North 6.9 mph - N/A   Clear
6:56 AM 32.0 °F 24.2 °F 24.8 °F 75% 30.00 in 10.0 mi North 9.2 mph - N/A   Clear
7:16 AM 30.2 °F 22.6 °F 28.4 °F 93% 30.01 in 10.0 mi NNW 8.1 mph - N/A   Clear
7:36 AM 32.0 °F 26.4 °F 28.4 °F 87% 30.02 in 10.0 mi NNW 5.8 mph - N/A   Clear
7:56 AM 32.0 °F 27.5 °F 28.4 °F 87% 30.02 in 10.0 mi North 4.6 mph - N/A   Clear
8:16 AM 33.8 °F 27.7 °F 30.2 °F 87% 30.03 in 10.0 mi NNE 6.9 mph - N/A   Clear
8:36 AM 33.8 °F 30.8 °F 28.4 °F 81% 30.03 in 10.0 mi NNE 3.5 mph - N/A   Clear
8:56 AM 32.0 °F 26.4 °F 30.2 °F 93% 30.04 in 10.0 mi North 5.8 mph - N/A   Clear
9:16 AM 33.8 °F 29.6 °F 30.2 °F 87% 30.04 in 10.0 mi North 4.6 mph - N/A   Clear
9:36 AM 33.8 °F 28.6 °F 30.2 °F 87% 30.03 in 10.0 mi NNE 5.8 mph - N/A   Clear
9:56 AM 35.6 °F 32.8 °F 30.2 °F 81% 30.03 in 10.0 mi NE 3.5 mph - N/A   Clear
10:16 AM 39.2 °F 37.0 °F 30.2 °F 70% 30.03 in 10.0 mi East 3.5 mph - N/A   Clear
10:36 AM 41.0 °F - 28.4 °F 61% 30.02 in 10.0 mi Calm Calm - N/A   Scattered Clouds
10:56 AM 41.0 °F 37.1 °F 28.4 °F 61% 30.03 in 10.0 mi NE 5.8 mph - N/A   Mostly Cloudy
11:16 AM 44.6 °F 42.2 °F 23.0 °F 43% 30.01 in 10.0 mi NNW 4.6 mph - N/A   Scattered Clouds
11:36 AM 46.4 °F 43.5 °F 26.6 °F 46% 30.00 in 10.0 mi NNE 5.8 mph - N/A   Mostly Cloudy
11:56 AM 46.4 °F 41.9 °F 26.6 °F 46% 29.98 in 10.0 mi NNE 9.2 mph - N/A   Scattered Clouds
12:16 PM 44.6 °F 39.7 °F 24.8 °F 46% 29.97 in 10.0 mi ENE 9.2 mph - N/A   Scattered Clouds
12:36 PM 44.6 °F 38.8 °F 23.0 °F 43% 29.95 in 10.0 mi ENE 11.5 mph - N/A   Scattered Clouds
12:56 PM 44.6 °F 40.7 °F 23.0 °F 43% 29.96 in 10.0 mi East 6.9 mph - N/A   Clear
1:16 PM 44.6 °F 40.2 °F 23.0 °F 43% 29.95 in 10.0 mi ENE 8.1 mph - N/A   Scattered Clouds
1:36 PM 42.8 °F 39.3 °F 23.0 °F 46% 29.95 in 10.0 mi East 5.8 mph - N/A   Overcast
1:56 PM 42.8 °F 41.1 °F 23.0 °F 46% 29.94 in 10.0 mi East 3.5 mph - N/A   Overcast
2:16 PM 42.8 °F 41.1 °F 24.8 °F 49% 29.94 in 10.0 mi North 3.5 mph - N/A   Overcast
2:36 PM 42.8 °F 40.1 °F 26.6 °F 53% 29.93 in 10.0 mi NNW 4.6 mph - N/A   Overcast
2:56 PM 42.8 °F 39.3 °F 28.4 °F 57% 29.93 in 10.0 mi North 5.8 mph - N/A   Overcast
3:16 PM 42.8 °F 39.3 °F 26.6 °F 53% 29.93 in 10.0 mi NNW 5.8 mph - N/A   Overcast
3:36 PM 42.8 °F 38.6 °F 28.4 °F 57% 29.92 in 10.0 mi NNW 6.9 mph - N/A   Overcast
3:56 PM 42.8 °F 40.1 °F 28.4 °F 57% 29.92 in 10.0 mi North 4.6 mph - N/A   Overcast
4:16 PM 41.0 °F 38.0 °F 28.4 °F 61% 29.91 in 10.0 mi NNW 4.6 mph - N/A   Overcast
4:36 PM 39.2 °F 33.6 °F 28.4 °F 65% 29.92 in 10.0 mi NNW 8.1 mph - N/A   Mostly Cloudy
4:56 PM 37.4 °F 32.8 °F 28.4 °F 70% 29.90 in 10.0 mi WNW 5.8 mph - N/A   Mostly Cloudy
5:16 PM 37.4 °F 32.8 °F 26.6 °F 65% 29.89 in 10.0 mi NNW 5.8 mph - N/A   Scattered Clouds
5:36 PM 35.6 °F 32.8 °F 26.6 °F 70% 29.87 in 10.0 mi NNE 3.5 mph - N/A   Scattered Clouds
5:56 PM 35.6 °F 30.7 °F 26.6 °F 70% 29.87 in 10.0 mi NNW 5.8 mph - N/A   Scattered Clouds
6:16 PM 35.6 °F 29.9 °F 28.4 °F 75% 29.89 in 10.0 mi North 6.9 mph - N/A   Scattered Clouds
6:36 PM 33.8 °F 28.6 °F 28.4 °F 81% 29.88 in 10.0 mi NW 5.8 mph - N/A   Scattered Clouds
6:56 PM 33.8 °F 25.3 °F 28.4 °F 81% 29.86 in 10.0 mi NE 11.5 mph - N/A   Scattered Clouds
7:16 PM 33.8 °F 29.6 °F 26.6 °F 75% 29.88 in 10.0 mi North 4.6 mph - N/A   Scattered Clouds
7:36 PM 35.6 °F 31.7 °F 26.6 °F 70% 29.88 in 10.0 mi NNE 4.6 mph - N/A   Mostly Cloudy
7:56 PM 33.8 °F 29.6 °F 26.6 °F 75% 29.88 in 10.0 mi South 4.6 mph - N/A   Scattered Clouds
8:16 PM 33.8 °F 28.6 °F 26.6 °F 75% 29.86 in 10.0 mi NNE 5.8 mph - N/A   Scattered Clouds
8:36 PM 33.8 °F 28.6 °F 26.6 °F 75% 29.87 in 10.0 mi NW 5.8 mph - N/A   Clear
8:56 PM 33.8 °F 30.8 °F 26.6 °F 75% 29.86 in 10.0 mi WSW 3.5 mph - N/A   Clear
9:16 PM 33.8 °F - 26.6 °F 75% 29.85 in 10.0 mi Calm Calm - N/A   Clear
9:36 PM 32.0 °F 27.5 °F 26.6 °F 80% 29.86 in 10.0 mi West 4.6 mph - N/A   Clear
9:56 PM 32.0 °F - 26.6 °F 80% 29.84 in 10.0 mi Calm Calm - N/A   Clear
10:16 PM 32.0 °F - 26.6 °F 80% 29.82 in 10.0 mi Calm Calm - N/A   Clear
10:36 PM 32.0 °F 27.5 °F 26.6 °F 80% 29.80 in 10.0 mi WNW 4.6 mph - N/A   Clear
10:56 PM 33.8 °F 28.6 °F 26.6 °F 75% 29.79 in 10.0 mi NNE 5.8 mph 10.4 mph N/A   Scattered Clouds
11:16 PM 32.0 °F 24.8 °F 26.6 °F 80% 29.80 in 10.0 mi NNW 8.1 mph - N/A   Clear
11:36 PM 32.0 °F 26.4 °F 26.6 °F 80% 29.80 in 10.0 mi NNE 5.8 mph - N/A   Clear
11:56 PM 33.8 °F 28.6 °F 26.6 °F 75% 29.79 in 10.0 mi North 5.8 mph - N/A   Clear